Location: Croisilles
(50.1998°N, 2.8793°E)
Time: 13:32:57
(UTC+00:00)

Cosmos 1726 Rocket - Pass Details

Date: 21 January 2021
Orbit: 604 x 628 km, 82.5° (Epoch: 26 February)

Event Time Altitude Azimuth Distance (km) Brightness Sun altitude
Rises 17:52:36 0° 346° (NNW) 2,884 7.0 -13.9°
Reaches altitude 10° 17:54:51 10° 342° (NNW) 1,978 6.2 -14.2°
Maximum altitude 17:59:07 55° 265° (W) 741 4.3 -14.9°
Drops below altitude 10° 18:03:24 10° 188° (S) 1,977 6.4 -15.6°
Sets 18:05:39 0° 184° (S) 2,882 7.2 -15.9°
